| time (UTC) | temp C | wind direction | speed KPH | gust KPH | rain 1hr cm | rain 24hr cm | rain mn cm | humidity % | barometer mb |
| 20260505025004 | 16 | 241 | 11.3 | 22.5 | 0.00 | 0.15 | 0.15 | 66 | 1022.5 |
| 20260505024504 | 16 | 256 | 9.7 | 16.1 | 0.00 | 0.15 | 0.15 | 65 | 1022.6 |
| 20260505024004 | 16 | 269 | 9.7 | 16.1 | 0.00 | 0.15 | 0.15 | 66 | 1022.6 |
| 20260505023504 | 17 | 264 | 8.0 | 24.1 | 0.00 | 0.15 | 0.15 | 65 | 1022.7 |
| 20260505023004 | 17 | 263 | 8.0 | 24.1 | 0.00 | 0.15 | 0.15 | 64 | 1022.7 |
| 20260505022504 | 17 | 250 | 9.7 | 16.1 | 0.00 | 0.15 | 0.15 | 66 | 1022.7 |
| 20260505022004 | 17 | 251 | 9.7 | 16.1 | 0.00 | 0.15 | 0.15 | 66 | 1022.7 |
| 20260505021504 | 17 | 253 | 11.3 | 16.1 | 0.00 | 0.15 | 0.15 | 68 | 1022.7 |
| 20260505021004 | 16 | 264 | 11.3 | 17.7 | 0.00 | 0.15 | 0.15 | 69 | 1022.7 |
| 20260505020504 | 16 | 275 | 11.3 | 22.5 | 0.00 | 0.15 | 0.15 | 70 | 1022.8 |
| 20260505020004 | 17 | 274 | 9.7 | 22.5 | 0.00 | 0.28 | 0.15 | 70 | 1022.8 |
| 20260505015504 | 17 | 280 | 9.7 | 16.1 | 0.00 | 0.28 | 0.15 | 73 | 1022.9 |
| 20260505015004 | 16 | 270 | 8.0 | 16.1 | 0.00 | 0.28 | 0.15 | 73 | 1022.9 |
| 20260505014504 | 16 | 264 | 6.4 | 16.1 | 0.00 | 0.28 | 0.15 | 72 | 1022.9 |
| 20260505014004 | 16 | 277 | 6.4 | 12.9 | 0.00 | 0.28 | 0.15 | 73 | 1022.9 |
| 20260505013504 | 16 | 269 | 6.4 | 16.1 | 0.00 | 0.28 | 0.15 | 73 | 1022.9 |
| 20260505013004 | 16 | 267 | 6.4 | 16.1 | 0.00 | 0.28 | 0.15 | 73 | 1022.8 |
| 20260505012504 | 16 | 284 | 6.4 | 14.5 | 0.00 | 0.28 | 0.15 | 75 | 1022.8 |
| 20260505012004 | 16 | 284 | 8.0 | 9.7 | 0.00 | 0.28 | 0.15 | 80 | 1022.7 |
| 20260505011504 | 15 | 261 | 8.0 | 14.5 | 0.00 | 0.28 | 0.15 | 80 | 1022.7 |
| 20260505011004 | 15 | 260 | 8.0 | 16.1 | 0.00 | 0.28 | 0.15 | 80 | 1022.8 |
| 20260505010525 | 16 | 273 | 6.4 | 16.1 | 0.00 | 0.30 | 0.15 | 83 | 1022.7 |
| 20260505010025 | 15 | 281 | 6.4 | 12.9 | 0.00 | 0.33 | 0.15 | 84 | 1022.7 |
| 20260505005504 | 15 | 258 | 8.0 | 12.9 | 0.00 | 0.33 | 0.15 | 85 | 1022.7 |
| 20260505005004 | 15 | 279 | 8.0 | 14.5 | 0.00 | 0.33 | 0.15 | 87 | 1022.6 |
| 20260505004504 | 15 | 296 | 8.0 | 14.5 | 0.00 | 0.33 | 0.15 | 88 | 1022.6 |
| 20260505004004 | 15 | 294 | 6.4 | 12.9 | 0.00 | 0.33 | 0.15 | 89 | 1022.5 |
| 20260505003504 | 15 | 299 | 6.4 | 12.9 | 0.00 | 0.33 | 0.15 | 89 | 1022.5 |
| 20260505003004 | 15 | 275 | 6.4 | 12.9 | 0.00 | 0.33 | 0.15 | 90 | 1022.5 |
| 20260505002525 | 15 | 261 | 4.8 | 14.5 | 0.00 | 0.33 | 0.15 | 90 | 1022.5 |
| 20260505002004 | 15 | 250 | 4.8 | 14.5 | 0.00 | 0.33 | 0.15 | 91 | 1022.4 |
| 20260505001504 | 14 | 241 | 3.2 | 12.9 | 0.00 | 0.33 | 0.15 | 92 | 1022.3 |
| 20260505001004 | 14 | 251 | 1.6 | 8.0 | 0.00 | 0.33 | 0.15 | 92 | 1022.3 |
| 20260505000504 | 15 | 262 | 3.2 | 9.7 | 0.00 | 0.33 | 0.15 | 92 | 1022.3 |
| 20260505000004 | 14 | 263 | 3.2 | 9.7 | 0.00 | 0.33 | 0.15 | 93 | 1022.3 |
| 20260504235504 | 14 | 267 | 1.6 | 8.0 | 0.00 | 0.33 | 0.15 | 93 | 1022.2 |
| 20260504235004 | 14 | 267 | 1.6 | 8.0 | 0.00 | 0.33 | 0.15 | 93 | 1022.2 |
| 20260504234504 | 14 | 262 | 1.6 | 8.0 | 0.00 | 0.33 | 0.15 | 93 | 1022.1 |
| 20260504234004 | 14 | 259 | 0.0 | 8.0 | 0.00 | 0.33 | 0.15 | 93 | 1022.1 |
| 20260504233504 | 14 | 278 | 0.0 | 1.6 | 0.00 | 0.33 | 0.15 | 93 | 1022.1 |
| 20260504233004 | 14 | 262 | 0.0 | 1.6 | 0.00 | 0.33 | 0.15 | 93 | 1022.1 |
| 20260504232525 | 14 | 249 | 0.0 | 4.8 | 0.00 | 0.33 | 0.15 | 93 | 1022.2 |
| 20260504232004 | 14 | 241 | 1.6 | 4.8 | 0.00 | 0.33 | 0.15 | 93 | 1022.1 |
| 20260504231504 | 14 | 231 | 1.6 | 8.0 | 0.00 | 0.33 | 0.15 | 93 | 1022.1 |
| 20260504231004 | 13 | 218 | 1.6 | 8.0 | 0.00 | 0.33 | 0.15 | 93 | 1022.1 |
| 20260504230504 | 13 | 131 | 0.0 | 8.0 | 0.00 | 0.33 | 0.15 | 93 | 1022.0 |
| 20260504230025 | 13 | 122 | 0.0 | 6.4 | 0.00 | 0.33 | 0.15 | 93 | 1022.0 |
| 20260504225504 | 13 | 128 | 0.0 | 4.8 | 0.00 | 0.33 | 0.15 | 93 | 1021.9 |
| 20260504225025 | 13 | 0 | 0.0 | 0.0 | 0.00 | 0.33 | 0.15 | 93 | 1021.8 |
| 20260504224504 | 13 | 0 | 0.0 | 0.0 | 0.00 | 0.33 | 0.15 | 93 | 1021.7 |
| 20260504224025 | 13 | 0 | 0.0 | 0.0 | 0.00 | 0.41 | 0.15 | 93 | 1021.8 |
| 20260504223504 | 13 | 0 | 0.0 | 0.0 | 0.00 | 0.53 | 0.15 | 93 | 1021.7 |
| 20260504223004 | 13 | 0 | 0.0 | 0.0 | 0.00 | 0.76 | 0.15 | 93 | 1021.6 |
| 20260504222525 | 13 | 0 | 0.0 | 0.0 | 0.00 | 0.76 | 0.15 | 93 | 1021.6 |
| 20260504222004 | 12 | 17 | 0.0 | 1.6 | 0.03 | 0.76 | 0.15 | 93 | 1021.5 |
| 20260504221525 | 12 | 17 | 0.0 | 1.6 | 0.03 | 0.76 | 0.15 | 93 | 1021.5 |
| 20260504221004 | 12 | 17 | 0.0 | 1.6 | 0.03 | 0.79 | 0.15 | 93 | 1021.5 |
| 20260504220504 | 12 | 0 | 0.0 | 0.0 | 0.03 | 0.91 | 0.15 | 93 | 1021.5 |
| 20260504220004 | 12 | 0 | 0.0 | 0.0 | 0.03 | 0.94 | 0.15 | 93 | 1021.4 |
| 20260504215504 | 12 | 242 | 1.6 | 4.8 | 0.03 | 0.97 | 0.15 | 93 | 1021.3 |
| 20260504215004 | 13 | 221 | 1.6 | 8.0 | 0.03 | 1.09 | 0.15 | 93 | 1021.3 |
| 20260504214504 | 13 | 202 | 1.6 | 12.9 | 0.03 | 1.17 | 0.15 | 93 | 1021.2 |
| 20260504214004 | 12 | 193 | 0.0 | 12.9 | 0.03 | 1.19 | 0.15 | 93 | 1021.1 |
| 20260504213504 | 12 | 156 | 0.0 | 4.8 | 0.03 | 1.24 | 0.15 | 93 | 1021.1 |
| 20260504213004 | 12 | 146 | 0.0 | 4.8 | 0.03 | 1.24 | 0.15 | 93 | 1021.1 |
| 20260504212504 | 12 | 132 | 1.6 | 1.6 | 0.03 | 1.24 | 0.15 | 93 | 1021.0 |
| 20260504212004 | 12 | 132 | 1.6 | 8.0 | 0.00 | 1.22 | 0.13 | 93 | 1020.9 |
| 20260504211525 | 12 | 132 | 1.6 | 8.0 | 0.00 | 1.24 | 0.13 | 93 | 1020.9 |
| 20260504211004 | 12 | 132 | 1.6 | 6.4 | 0.00 | 1.30 | 0.13 | 93 | 1020.9 |
| 20260504210504 | 12 | 132 | 1.6 | 4.8 | 0.00 | 1.32 | 0.13 | 93 | 1020.8 |
| 20260504210004 | 12 | 132 | 0.0 | 4.8 | 0.00 | 1.35 | 0.13 | 93 | 1020.7 |
| 20260504205504 | 12 | 132 | 0.0 | 4.8 | 0.05 | 1.35 | 0.13 | 93 | 1020.6 |
| 20260504205004 | 12 | 132 | 1.6 | 1.6 | 0.05 | 1.37 | 0.13 | 93 | 1020.5 |
| 20260504204525 | 12 | 133 | 1.6 | 8.0 | 0.05 | 1.37 | 0.13 | 93 | 1020.5 |
| 20260504204004 | 12 | 133 | 0.0 | 8.0 | 0.05 | 1.37 | 0.13 | 93 | 1020.4 |
| 20260504203504 | 12 | 134 | 4.8 | 4.8 | 0.05 | 1.37 | 0.13 | 93 | 1020.5 |
| 20260504203004 | 12 | 0 | 0.0 | 0.0 | 0.05 | 1.37 | 0.13 | 93 | 1020.4 |
| 20260504202504 | 12 | 0 | 0.0 | 0.0 | 0.05 | 1.37 | 0.13 | 93 | 1020.4 |
| 20260504202004 | 12 | 0 | 0.0 | 0.0 | 0.05 | 1.37 | 0.13 | 93 | 1020.3 |
| 20260504201504 | 12 | 138 | 8.0 | 8.0 | 0.05 | 1.37 | 0.13 | 93 | 1020.3 |
| 20260504201004 | 12 | 138 | 8.0 | 8.0 | 0.05 | 1.47 | 0.13 | 93 | 1020.3 |
| 20260504200504 | 12 | 0 | 0.0 | 0.0 | 0.05 | 1.57 | 0.13 | 93 | 1020.2 |
| 20260504200004 | 12 | 0 | 0.0 | 0.0 | 0.05 | 1.60 | 0.13 | 93 | 1020.2 |
| 20260504195504 | 12 | 0 | 0.0 | 0.0 | 0.00 | 1.57 | 0.08 | 93 | 1020.3 |
| 20260504195004 | 12 | 0 | 0.0 | 0.0 | 0.00 | 1.75 | 0.08 | 92 | 1020.2 |
| 20260504194504 | 12 | 0 | 0.0 | 0.0 | 0.00 | 1.75 | 0.08 | 92 | 1020.1 |
| 20260504194004 | 12 | 0 | 0.0 | 0.0 | 0.00 | 1.78 | 0.08 | 92 | 1020.0 |
| 20260504193503 | 12 | 0 | 0.0 | 0.0 | 0.00 | 1.80 | 0.08 | 93 | 1020.0 |
| 20260504193004 | 12 | 0 | 0.0 | 0.0 | 0.00 | 1.83 | 0.08 | 93 | 1019.9 |
| 20260504192504 | 12 | 0 | 0.0 | 0.0 | 0.00 | 1.83 | 0.08 | 92 | 1019.9 |
| 20260504192004 | 12 | 0 | 0.0 | 0.0 | 0.00 | 1.98 | 0.08 | 92 | 1019.9 |
| 20260504191525 | 12 | 174 | 0.0 | 1.6 | 0.00 | 1.98 | 0.08 | 92 | 1019.9 |
| 20260504191025 | 12 | 174 | 0.0 | 1.6 | 0.00 | 1.98 | 0.08 | 92 | 1019.9 |
| 20260504190504 | 12 | 173 | 0.0 | 1.6 | 0.03 | 1.98 | 0.08 | 92 | 1019.9 |
| 20260504190004 | 12 | 174 | 0.0 | 1.6 | 0.03 | 2.01 | 0.08 | 92 | 1019.8 |
| 20260504185504 | 12 | 174 | 0.0 | 1.6 | 0.05 | 2.01 | 0.08 | 92 | 1019.8 |
| 20260504185004 | 12 | 0 | 0.0 | 0.0 | 0.05 | 2.01 | 0.08 | 92 | 1019.8 |
| 20260504184504 | 12 | 0 | 0.0 | 0.0 | 0.05 | 2.01 | 0.08 | 92 | 1019.7 |
| 20260504184004 | 13 | 174 | 0.0 | 1.6 | 0.05 | 2.03 | 0.08 | 92 | 1019.6 |
| 20260504183504 | 13 | 174 | 1.6 | 4.8 | 0.05 | 2.06 | 0.08 | 92 | 1019.6 |
| 20260504183004 | 13 | 175 | 1.6 | 8.0 | 0.05 | 2.06 | 0.08 | 92 | 1019.5 |
| 20260504182525 | 13 | 176 | 0.0 | 8.0 | 0.05 | 2.06 | 0.08 | 92 | 1019.5 |
| 20260504182003 | 13 | 0 | 0.0 | 0.0 | 0.05 | 2.06 | 0.08 | 92 | 1019.5 |
| 20260504181503 | 13 | 311 | 1.6 | 1.6 | 0.05 | 2.06 | 0.08 | 92 | 1019.5 |
| 20260504181004 | 13 | 288 | 1.6 | 8.0 | 0.05 | 2.06 | 0.08 | 92 | 1019.5 |
| 20260504180503 | 13 | 247 | 0.0 | 8.0 | 0.03 | 2.03 | 0.05 | 92 | 1019.5 |
| 20260504180004 | 13 | 137 | 0.0 | 4.8 | 0.03 | 2.03 | 0.05 | 92 | 1019.5 |
| 20260504175504 | 13 | 137 | 0.0 | 1.6 | 0.00 | 2.03 | 0.05 | 92 | 1019.5 |
| 20260504175004 | 13 | 137 | 0.0 | 1.6 | 0.00 | 2.03 | 0.05 | 92 | 1019.6 |
| 20260504174503 | 13 | 137 | 1.6 | 1.6 | 0.00 | 2.03 | 0.05 | 92 | 1019.6 |
| 20260504174004 | 13 | 138 | 1.6 | 4.8 | 0.00 | 2.03 | 0.05 | 92 | 1019.6 |
| 20260504173504 | 13 | 138 | 1.6 | 4.8 | 0.00 | 2.03 | 0.05 | 92 | 1019.5 |
| 20260504173004 | 13 | 138 | 0.0 | 4.8 | 0.00 | 2.06 | 0.05 | 92 | 1019.6 |
| 20260504172525 | 13 | 138 | 0.0 | 4.8 | 0.00 | 2.06 | 0.05 | 92 | 1019.7 |
| 20260504172004 | 13 | 138 | 0.0 | 4.8 | 0.03 | 2.06 | 0.05 | 92 | 1019.8 |
| 20260504171504 | 13 | 0 | 0.0 | 0.0 | 0.03 | 2.08 | 0.05 | 92 | 1019.7 |
| 20260504171004 | 13 | 0 | 0.0 | 0.0 | 0.03 | 2.08 | 0.05 | 92 | 1019.8 |
| 20260504170504 | 13 | 0 | 0.0 | 0.0 | 0.03 | 2.08 | 0.05 | 92 | 1019.8 |
| 20260504151004 | 12 | 88 | 6.4 | 9.7 | 0.03 | 2.11 | 0.03 | 91 | 1019.5 |
| 20260504150525 | 12 | 76 | 6.4 | 8.0 | 0.03 | 2.11 | 0.03 | 91 | 1019.5 |
| 20260504141004 | 13 | 84 | 1.6 | 4.8 | 0.00 | 2.11 | 2.11 | 90 | 1019.2 |
| 20260504140525 | 13 | 58 | 1.6 | 8.0 | 0.00 | 2.11 | 2.11 | 90 | 1019.3 |
| 20260504130504 | 13 | 0 | 0.0 | 0.0 | 0.03 | 2.11 | 2.11 | 88 | 1019.0 |
| 20260504082004 | 16 | 270 | 9.7 | 16.1 | 0.00 | 2.13 | 2.08 | 80 | 1015.8 |
| 20260504081504 | 16 | 284 | 8.0 | 16.1 | 0.00 | 2.13 | 2.08 | 80 | 1015.8 |
| 20260504081004 | 16 | 293 | 6.4 | 16.1 | 0.00 | 2.13 | 2.08 | 81 | 1015.7 |
| 20260504080504 | 16 | 298 | 8.0 | 16.1 | 0.00 | 2.13 | 2.08 | 81 | 1015.7 |
| 20260504050504 | 19 | 247 | 22.5 | 38.6 | 0.00 | 2.18 | 2.08 | 63 | 1014.1 |
| 20260504050004 | 18 | 255 | 20.9 | 37.0 | 0.00 | 2.18 | 2.08 | 65 | 1014.0 |
| 20260504045504 | 18 | 257 | 20.9 | 38.6 | 0.00 | 2.18 | 2.08 | 64 | 1014.0 |
| 20260504045004 | 19 | 252 | 19.3 | 38.6 | 0.00 | 2.18 | 2.08 | 64 | 1013.9 |
| 20260504044504 | 18 | 240 | 17.7 | 32.2 | 0.00 | 2.18 | 2.08 | 64 | 1013.8 |
| 20260504044004 | 18 | 227 | 19.3 | 32.2 | 0.00 | 2.18 | 2.08 | 66 | 1013.8 |
| 20260504043504 | 18 | 222 | 20.9 | 38.6 | 0.00 | 2.18 | 2.08 | 65 | 1013.8 |
| 20260504043004 | 18 | 224 | 22.5 | 38.6 | 0.00 | 2.18 | 2.08 | 66 | 1013.6 |
| 20260504042504 | 18 | 237 | 20.9 | 37.0 | 0.00 | 2.18 | 2.08 | 68 | 1013.7 |
| 20260504042004 | 18 | 243 | 17.7 | 40.2 | 0.00 | 2.18 | 2.08 | 67 | 1013.7 |
| 20260504041504 | 18 | 243 | 17.7 | 40.2 | 0.00 | 2.18 | 2.08 | 66 | 1013.6 |
| 20260504041004 | 18 | 249 | 19.3 | 37.0 | 0.00 | 2.18 | 2.08 | 67 | 1013.7 |
| 20260504040525 | 19 | 252 | 22.5 | 37.0 | 0.00 | 2.18 | 2.08 | 66 | 1013.6 |
| 20260504040004 | 19 | 256 | 24.1 | 38.6 | 0.00 | 2.18 | 2.08 | 67 | 1013.7 |
| 20260504035505 | 18 | 261 | 24.1 | 45.1 | 0.00 | 2.18 | 2.08 | 67 | 1013.7 |
| 20260504035004 | 18 | 259 | 22.5 | 45.1 | 0.00 | 2.18 | 2.08 | 68 | 1013.6 |
| 20260504034525 | 18 | 254 | 20.9 | 45.1 | 0.00 | 2.18 | 2.08 | 66 | 1013.7 |
| 20260504034004 | 18 | 255 | 20.9 | 38.6 | 0.00 | 2.18 | 2.08 | 67 | 1013.6 |
| 20260504033504 | 18 | 253 | 24.1 | 38.6 | 0.00 | 2.18 | 2.08 | 69 | 1013.8 |
| 20260504033004 | 18 | 248 | 24.1 | 38.6 | 0.00 | 2.18 | 2.08 | 69 | 1013.7 |
| 20260504032525 | 18 | 241 | 24.1 | 46.7 | 0.00 | 2.18 | 2.08 | 68 | 1013.7 |
| 20260504032004 | 18 | 239 | 24.1 | 46.7 | 0.00 | 2.18 | 2.08 | 68 | 1013.6 |
| 20260504031505 | 18 | 247 | 22.5 | 51.5 | 0.00 | 2.18 | 2.08 | 69 | 1013.7 |
| 20260504031004 | 18 | 250 | 20.9 | 51.5 | 0.00 | 2.18 | 2.08 | 69 | 1013.8 |
| 20260504030504 | 18 | 254 | 20.9 | 43.5 | 0.00 | 2.18 | 2.08 | 71 | 1013.7 |
| 20260504030004 | 18 | 259 | 20.9 | 40.2 | 0.13 | 2.18 | 2.08 | 71 | 1013.8 |
| 20260504025504 | 18 | 264 | 20.9 | 48.3 | 0.13 | 2.18 | 2.08 | 73 | 1013.9 |